,,Stat1,,Stat2,,Stat3,,Stat4,,Wind1,,Wind1,
time,status,PR1M_SUM,status,RH1M_AVG,status,SR1M_AVG,status,TA1M_AVG,status,W1dAve1m,status,W1sAve1m,
1999-10-18, 00:01:00,VALID,0,VALID,99.2564,VALID,-0.0849042,VALID,20.5419,VALID,310,VALID,0,
1999-10-18, 00:02:00,VALID,0,VALID,99.2818,VALID,-0.0679233,VALID,20.5457,VALID,301,VALID,0,
1999-10-18, 00:03:00,VALID,0,VALID,99.2894,VALID,-0.0679233,VALID,20.5613,VALID,294,VALID,0,
1999-10-18, 00:04:00,VALID,0,VALID,99.2004,VALID,-0.0679233,VALID,20.5322,VALID,294,VALID,0,
1999-10-18, 00:05:00,VALID,0,VALID,99.1966,VALID,-0.0679233,VALID,20.5193,VALID,286,VALID,0,
1999-10-18, 00:06:00,VALID,0,VALID,99.2068,VALID,-0.0679233,VALID,20.5056,VALID,282,VALID,0,
1999-10-18, 00:07:00,VALID,0,VALID,99.203,VALID,-0.0679233,VALID,20.5096,VALID,282,VALID,0,
1999-10-18, 00:08:00,VALID,0,VALID,99.2398,VALID,-0.0339617,VALID,20.5325,VALID,282,VALID,0,
1999-10-18, 00:09:00,VALID,0,VALID,99.2182,VALID,-0.0339617,VALID,20.5325,VALID,282,VALID,0,
1999-10-18, 00:10:01,VALID,0,VALID,99.2131,VALID,-0.0169808,VALID,20.5292,VALID,282,VALID,0,
1999-10-18, 00:11:00,VALID,0,VALID,99.1941,VALID,-0.0509425,VALID,20.5389,VALID,282,VALID,0,
1999-10-18, 00:12:00,VALID,0,VALID,99.1152,VALID,-0.0169808,VALID,20.5026,VALID,282,VALID,0,
1999-10-18, 00:13:00,VALID,0,VALID,99.1076,VALID,-0.0679233,VALID,20.4964,VALID,282,VALID,0,
1999-10-18, 00:14:00,VALID,0,VALID,99.1203,VALID,-0.0679233,VALID,20.4899,VALID,282,VALID,0,
1999-10-18, 00:15:00,VALID,0,VALID,99.175,VALID,-0.0339617,VALID,20.5128,VALID,282,VALID,0,
1999-10-18, 00:16:00,VALID,0,VALID,99.1597,VALID,-0.0339617,VALID,20.529,VALID,282,VALID,0,
1999-10-18, 00:17:00,VALID,0,VALID,99.1597,VALID,-0.0849042,VALID,20.5357,VALID,282,VALID,0,
1999-10-18, 00:18:00,VALID,0,VALID,99.1585,VALID,-0.0849042,VALID,20.5419,VALID,280,VALID,0,
1999-10-18, 00:19:00,VALID,0,VALID,99.1559,VALID,-0.0339617,VALID,20.5489,VALID,286,VALID,0,
1999-10-18, 00:20:00,VALID,0,VALID,99.0796,VALID,-0.0679233,VALID,20.5292,VALID,290,VALID,0,
1999-10-18, 00:21:01,VALID,0,VALID,99.0224,VALID,-0.0339617,VALID,20.5096,VALID,290,VALID,0,
1999-10-18, 00:22:00,VALID,0,VALID,99.0211,VALID,-0.0339617,VALID,20.4959,VALID,291,VALID,0,
1999-10-18, 00:23:00,VALID,0,VALID,99.0427,VALID,-0.0679233,VALID,20.5031,VALID,291,VALID,0,
1999-10-18, 00:24:00,VALID,0,VALID,99.058,VALID,-0.0679233,VALID,20.4999,VALID,291,VALID,0,
1999-10-18, 00:25:00,VALID,0,VALID,99.0669,VALID,-0.0169808,VALID,20.5063,VALID,291,VALID,0,
1999-10-18, 00:26:00,VALID,0,VALID,99.0911,VALID,-0.0169808,VALID,20.5126,VALID,294,VALID,0,
1999-10-18, 00:27:00,VALID,0,VALID,99.1089,VALID,-0.0679233,VALID,20.5225,VALID,309,VALID,0,
1999-10-18, 00:28:00,VALID,0,VALID,99.1203,VALID,-0.101885,VALID,20.5427,VALID,309,VALID,0,
1999-10-18, 00:29:00,VALID,0,VALID,99.1139,VALID,-0.101885,VALID,20.5554,VALID,178,VALID,0,
1999-10-18, 00:30:00,VALID,0,VALID,99.119,VALID,-0.101885,VALID,20.5554,VALID,130,VALID,0,
1999-10-18, 00:31:01,VALID,0,VALID,99.1356,VALID,-0.0679233,VALID,20.5648,VALID,131,VALID,0,
1999-10-18, 00:32:00,VALID,0,VALID,99.1089,VALID,-0.101885,VALID,20.5643,VALID,131,VALID,0,
1999-10-18, 00:33:00,VALID,0,VALID,99.0631,VALID,-0.0679233,VALID,20.5446,VALID,129,VALID,0,
1999-10-18, 00:34:00,VALID,0,VALID,99.0516,VALID,-0.0849042,VALID,20.5584,VALID,129,VALID,0,
1999-10-18, 00:35:00,VALID,0,VALID,99.044,VALID,-0.0339617,VALID,20.5449,VALID,129,VALID,0,
1999-10-18, 00:36:00,VALID,0,VALID,99.0377,VALID,-0.0169808,VALID,20.5519,VALID,127,VALID,0,
1999-10-18, 00:37:00,VALID,0,VALID,99.058,VALID,-0.0169808,VALID,20.5675,VALID,127,VALID,0,
1999-10-18, 00:38:00,VALID,0,VALID,99.0135,VALID,-0.0509425,VALID,20.5581,VALID,127,VALID,0,
1999-10-18, 00:39:00,VALID,0,VALID,98.9995,VALID,-0.0849042,VALID,20.5449,VALID,127,VALID,0,
1999-10-18, 00:40:00,VALID,0,VALID,99.0173,VALID,-0.0509425,VALID,20.5646,VALID,127,VALID,0,
1999-10-18, 00:41:00,VALID,0,VALID,99.0377,VALID,-0.0679233,VALID,20.5775,VALID,128,VALID,0,
1999-10-18, 00:42:00,VALID,0,VALID,99.0237,VALID,-0.0849042,VALID,20.584,VALID,128,VALID,0,
1999-10-18, 00:43:01,VALID,0,VALID,99.0338,VALID,0.0169808,VALID,20.5827,VALID,128,VALID,0,
1999-10-18, 00:44:00,VALID,0,VALID,99.03,VALID,0.0339617,VALID,20.6053,VALID,128,VALID,0,
1999-10-18, 00:45:00,VALID,0,VALID,99.0338,VALID,0.0169808,VALID,20.6048,VALID,128,VALID,0,
1999-10-18, 00:46:00,VALID,0,VALID,98.9906,VALID,0.0169808,VALID,20.6083,VALID,135,VALID,0,
1999-10-18, 00:47:00,VALID,0,VALID,98.9423,VALID,0.0169808,VALID,20.6153,VALID,169,VALID,0,
1999-10-18, 00:48:00,VALID,0,VALID,98.9715,VALID,0.0509425,VALID,20.6118,VALID,157,VALID,0,
1999-10-18, 00:49:00,VALID,0,VALID,98.9423,VALID,0.0339617,VALID,20.6083,VALID,159,VALID,0,
1999-10-18, 00:50:00,VALID,0,VALID,98.9194,VALID,0,VALID,20.5921,VALID,166,VALID,0,
1999-10-18, 00:51:00,VALID,0,VALID,98.9766,VALID,0.0679233,VALID,20.6083,VALID,166,VALID,0,
1999-10-18, 00:52:00,VALID,0,VALID,99.0148,VALID,0.0339617,VALID,20.6347,VALID,166,VALID,0,
1999-10-18, 00:53:00,VALID,0,VALID,99.0427,VALID,0.0849042,VALID,20.6441,VALID,138,VALID,0,
1999-10-18, 00:54:01,VALID,0,VALID,99.0783,VALID,0.0509425,VALID,20.6369,VALID,126,VALID,0,
1999-10-18, 00:55:00,VALID,0,VALID,99.0262,VALID,0,VALID,20.6337,VALID,126,VALID,0,
1999-10-18, 00:56:00,VALID,0,VALID,98.9512,VALID,0.0679233,VALID,20.6148,VALID,125,VALID,0,
1999-10-18, 00:57:00,VALID,0,VALID,98.8647,VALID,0.0169808,VALID,20.5924,VALID,327,VALID,0,
1999-10-18, 00:58:00,VALID,0,VALID,98.8202,VALID,0.0169808,VALID,20.5725,VALID,285,VALID,0,
1999-10-18, 00:59:00,VALID,0,VALID,98.838,VALID,0.0509425,VALID,20.5725,VALID,293,VALID,0,
1999-10-18, 01:00:00,VALID,0,VALID,98.8126,VALID,0.0169808,VALID,20.56,VALID,295,VALID,0,
1999-10-18, 01:01:00,VALID,0,VALID,98.8482,VALID,0.0169808,VALID,20.5638,VALID,294,VALID,0,
1999-10-18, 01:02:00,VALID,0,VALID,98.8838,VALID,0.0849042,VALID,20.5463,VALID,272,VALID,0,
1999-10-18, 01:03:00,VALID,0,VALID,98.9563,VALID,0.0509425,VALID,20.5697,VALID,269,VALID,0,
1999-10-18, 01:04:00,VALID,0,VALID,99.0186,VALID,0,VALID,20.5889,VALID,132,VALID,0,
1999-10-18, 01:05:01,VALID,0,VALID,99.0427,VALID,0.0339617,VALID,20.5921,VALID,114,VALID,0,
1999-10-18, 01:06:00,VALID,0,VALID,99.0287,VALID,-0.0169808,VALID,20.6024,VALID,123,VALID,0,
1999-10-18, 01:07:00,VALID,0,VALID,99.0173,VALID,0.0509425,VALID,20.5859,VALID,93,VALID,0.456801,
1999-10-18, 01:08:00,VALID,0,VALID,99.0377,VALID,0.0509425,VALID,20.5892,VALID,94,VALID,0.528571,
1999-10-18, 01:09:00,VALID,0,VALID,99.0516,VALID,0,VALID,20.5792,VALID,91,VALID,0.262336,
1999-10-18, 01:10:00,VALID,0,VALID,99.058,VALID,0.0339617,VALID,20.5894,VALID,90,VALID,0,
1999-10-18, 01:11:00,VALID,0,VALID,99.0605,VALID,0,VALID,20.5762,VALID,90,VALID,0,
1999-10-18, 01:12:00,VALID,0,VALID,99.0453,VALID,0.0339617,VALID,20.5565,VALID,90,VALID,0,
1999-10-18, 01:13:00,VALID,0,VALID,99.0694,VALID,0.0169808,VALID,20.5665,VALID,90,VALID,0,
1999-10-18, 01:14:00,VALID,0,VALID,99.0834,VALID,0,VALID,20.576,VALID,90,VALID,0,
1999-10-18, 01:15:01,VALID,0,VALID,99.0542,VALID,0,VALID,20.5695,VALID,90,VALID,0,
1999-10-18, 01:16:01,VALID,0,VALID,99.0338,VALID,0.0169808,VALID,20.5565,VALID,90,VALID,0,
1999-10-18, 01:17:00,VALID,0,VALID,99.0542,VALID,0.0169808,VALID,20.5568,VALID,90,VALID,0,
1999-10-18, 01:18:00,VALID,0,VALID,99.0745,VALID,0.0169808,VALID,20.5662,VALID,90,VALID,0,
1999-10-18, 01:19:00,VALID,0,VALID,99.0809,VALID,0,VALID,20.5697,VALID,92,VALID,0,
1999-10-18, 01:20:00,VALID,0,VALID,99.1152,VALID,0.0169808,VALID,20.5762,VALID,93,VALID,0,
1999-10-18, 01:21:00,VALID,0,VALID,99.0898,VALID,0.0169808,VALID,20.5762,VALID,93,VALID,0,
1999-10-18, 01:22:00,VALID,0,VALID,99.0694,VALID,0,VALID,20.5501,VALID,93,VALID,0,
1999-10-18, 01:23:00,VALID,0,VALID,99.1228,VALID,0,VALID,20.5538,VALID,94,VALID,0,
1999-10-18, 01:24:00,VALID,0,VALID,99.1813,VALID,0,VALID,20.5732,VALID,237,VALID,0,
1999-10-18, 01:25:00,VALID,0,VALID,99.1928,VALID,0,VALID,20.5635,VALID,257,VALID,0,
1999-10-18, 01:26:01,VALID,0,VALID,99.208,VALID,0.0169808,VALID,20.5628,VALID,256,VALID,0,
1999-10-18, 01:27:01,VALID,0,VALID,99.236,VALID,0,VALID,20.57,VALID,255,VALID,0,
1999-10-18, 01:28:00,VALID,0,VALID,99.2437,VALID,0.0339617,VALID,20.5794,VALID,255,VALID,0,
1999-10-18, 01:29:00,VALID,0,VALID,99.2678,VALID,0,VALID,20.5794,VALID,247,VALID,0,
1999-10-18, 01:30:00,VALID,0,VALID,99.306,VALID,0,VALID,20.5862,VALID,109,VALID,0,
1999-10-18, 01:31:00,VALID,0,VALID,99.2627,VALID,0.0169808,VALID,20.5568,VALID,109,VALID,0,
1999-10-18, 01:32:00,VALID,0,VALID,99.208,VALID,0,VALID,20.5344,VALID,109,VALID,0,
1999-10-18, 01:33:00,VALID,0,VALID,99.2246,VALID,0,VALID,20.5377,VALID,109,VALID,0,
1999-10-18, 01:34:00,VALID,0,VALID,99.2704,VALID,0,VALID,20.5506,VALID,109,VALID,0,
1999-10-18, 01:35:00,VALID,0,VALID,99.311,VALID,0,VALID,20.5593,VALID,108,VALID,0,
1999-10-18, 01:36:00,VALID,0,VALID,99.2894,VALID,-0.0169808,VALID,20.58,VALID,102,VALID,0,
1999-10-18, 01:37:00,VALID,0,VALID,99.2335,VALID,0,VALID,20.573,VALID,102,VALID,0,
1999-10-18, 01:38:01,VALID,0,VALID,99.2182,VALID,0.0169808,VALID,20.56,VALID,100,VALID,0,
1999-10-18, 01:39:00,VALID,0,VALID,99.2182,VALID,0,VALID,20.576,VALID,104,VALID,0,
1999-10-18, 01:40:00,VALID,0,VALID,99.2449,VALID,0,VALID,20.6058,VALID,105,VALID,0,
1999-10-18, 01:41:00,VALID,0,VALID,99.2564,VALID,0.0169808,VALID,20.6218,VALID,104,VALID,0,
1999-10-18, 01:42:00,VALID,0,VALID,99.2144,VALID,0,VALID,20.6091,VALID,110,VALID,0,
1999-10-18, 01:43:00,VALID,0,VALID,99.1674,VALID,0,VALID,20.5854,VALID,112,VALID,0.18704,
1999-10-18, 01:44:00,VALID,0,VALID,99.1279,VALID,0,VALID,20.5859,VALID,106,VALID,0.773661,
1999-10-18, 01:45:00,VALID,0,VALID,99.1076,VALID,0,VALID,20.576,VALID,114,VALID,0.799959,
1999-10-18, 01:46:00,VALID,0,VALID,99.0364,VALID,0,VALID,20.5703,VALID,108,VALID,0.786951,
1999-10-18, 01:47:00,VALID,0,VALID,99.0313,VALID,0,VALID,20.5638,VALID,109,VALID,0.691306,
1999-10-18, 01:48:01,VALID,0,VALID,99.0224,VALID,0,VALID,20.5436,VALID,114,VALID,0.444285,
1999-10-18, 01:49:00,VALID,0,VALID,99.0033,VALID,0,VALID,20.5439,VALID,106,VALID,0.544613,
1999-10-18, 01:50:00,VALID,0,VALID,98.9219,VALID,0,VALID,20.518,VALID,90,VALID,0.580929,
1999-10-18, 01:51:00,VALID,0,VALID,98.9321,VALID,0,VALID,20.5215,VALID,92,VALID,0.0378906,
1999-10-18, 01:52:00,VALID,0,VALID,98.9118,VALID,0,VALID,20.5113,VALID,92,VALID,0.100329,
1999-10-18, 01:53:00,VALID,0,VALID,98.9308,VALID,0,VALID,20.5215,VALID,105,VALID,0.592928,
1999-10-18, 01:54:00,VALID,0,VALID,98.9474,VALID,0.0169808,VALID,20.518,VALID,100,VALID,0.708882,
1999-10-18, 01:55:00,VALID,0,VALID,98.9588,VALID,-0.0169808,VALID,20.5247,VALID,107,VALID,0.539463,
1999-10-18, 01:56:00,VALID,0,VALID,98.9842,VALID,-0.0169808,VALID,20.5374,VALID,93,VALID,0.168555,
1999-10-18, 01:57:00,VALID,0,VALID,98.9296,VALID,0,VALID,20.5145,VALID,94,VALID,0,
1999-10-18, 01:58:01,VALID,0,VALID,98.913,VALID,0,VALID,20.525,VALID,148,VALID,0.123438,
1999-10-18, 01:59:01,VALID,0,VALID,98.8876,VALID,0,VALID,20.5016,VALID,249,VALID,0.0476763,
1999-10-18, 02:00:00,VALID,0,VALID,98.9436,VALID,0,VALID,20.5113,VALID,228,VALID,0,
1999-10-18, 02:01:00,VALID,0,VALID,98.9779,VALID,0,VALID,20.5312,VALID,175,VALID,0,
1999-10-18, 02:02:00,VALID,0,VALID,99.0211,VALID,0.0169808,VALID,20.5406,VALID,116,VALID,0,
1999-10-18, 02:03:00,VALID,0,VALID,99.0122,VALID,0,VALID,20.5509,VALID,117,VALID,0,
1999-10-18, 02:04:00,VALID,0,VALID,99.016,VALID,0,VALID,20.5573,VALID,124,VALID,0,
1999-10-18, 02:05:00,VALID,0,VALID,98.9931,VALID,0,VALID,20.5474,VALID,117,VALID,0,
1999-10-18, 02:06:00,VALID,0,VALID,98.9766,VALID,-0.0169808,VALID,20.5307,VALID,192,VALID,0,
1999-10-18, 02:07:00,VALID,0,VALID,98.9601,VALID,0.0169808,VALID,20.5245,VALID,266,VALID,0,
1999-10-18, 02:08:00,VALID,0,VALID,98.9715,VALID,0.0339617,VALID,20.5118,VALID,318,VALID,0,
1999-10-18, 02:09:00,VALID,0,VALID,98.9995,VALID,0,VALID,20.4921,VALID,310,VALID,0,
1999-10-18, 02:10:01,VALID,0,VALID,99.044,VALID,0.0169808,VALID,20.5016,VALID,181,VALID,0,
1999-10-18, 02:11:00,VALID,0,VALID,99.1076,VALID,0,VALID,20.5247,VALID,112,VALID,0,
1999-10-18, 02:12:00,VALID,0,VALID,99.086,VALID,0,VALID,20.5118,VALID,123,VALID,0,
1999-10-18, 02:13:00,VALID,0,VALID,99.086,VALID,-0.0339617,VALID,20.5061,VALID,131,VALID,0,
1999-10-18, 02:14:00,VALID,0,VALID,99.1241,VALID,-0.0169808,VALID,20.5188,VALID,130,VALID,0,
1999-10-18, 02:15:00,VALID,0,VALID,99.1228,VALID,-0.0509425,VALID,20.5158,VALID,118,VALID,0,
1999-10-18, 02:16:00,VALID,0,VALID,99.133,VALID,-0.0509425,VALID,20.5223,VALID,118,VALID,0,
1999-10-18, 02:17:00,VALID,0,VALID,99.0961,VALID,-0.0679233,VALID,20.516,VALID,119,VALID,0,
1999-10-18, 02:18:00,VALID,0,VALID,99.0707,VALID,-0.0849042,VALID,20.5034,VALID,205,VALID,0,
1999-10-18, 02:19:00,VALID,0,VALID,99.0822,VALID,-0.0679233,VALID,20.5061,VALID,206,VALID,0,
1999-10-18, 02:20:00,VALID,0,VALID,99.0516,VALID,-0.0509425,VALID,20.5096,VALID,206,VALID,0,
1999-10-18, 02:21:00,VALID,0,VALID,99.0682,VALID,-0.0509425,VALID,20.5096,VALID,205,VALID,0,
1999-10-18, 02:22:00,VALID,0,VALID,99.0287,VALID,-0.0339617,VALID,20.5098,VALID,205,VALID,0,
1999-10-18, 02:23:00,VALID,0,VALID,99.0033,VALID,-0.0849042,VALID,20.4904,VALID,205,VALID,0,
1999-10-18, 02:24:00,VALID,0,VALID,98.9919,VALID,-0.0679233,VALID,20.4869,VALID,205,VALID,0,
1999-10-18, 02:25:00,VALID,0,VALID,98.9423,VALID,-0.0679233,VALID,20.4807,VALID,213,VALID,0,
1999-10-18, 02:26:00,VALID,0,VALID,98.8609,VALID,-0.0679233,VALID,20.4546,VALID,222,VALID,0,
1999-10-18, 02:27:00,VALID,0,VALID,98.7706,VALID,-0.0339617,VALID,20.4317,VALID,246,VALID,0,
1999-10-18, 02:28:00,VALID,0,VALID,98.7643,VALID,-0.0509425,VALID,20.412,VALID,288,VALID,0,
1999-10-18, 02:29:00,VALID,0,VALID,98.7579,VALID,-0.0509425,VALID,20.4292,VALID,308,VALID,0,
1999-10-18, 02:30:00,VALID,0,VALID,98.7388,VALID,0,VALID,20.422,VALID,326,VALID,0,
1999-10-18, 02:31:01,VALID,0,VALID,98.8049,VALID,0,VALID,20.4578,VALID,330,VALID,0,
1999-10-18, 02:32:00,VALID,0,VALID,98.7935,VALID,-0.0509425,VALID,20.464,VALID,338,VALID,0,
1999-10-18, 02:33:00,VALID,0,VALID,98.7757,VALID,-0.0509425,VALID,20.4645,VALID,341,VALID,0,
1999-10-18, 02:34:00,VALID,0,VALID,98.777,VALID,-0.0169808,VALID,20.4576,VALID,100,VALID,0,
1999-10-18, 02:35:00,VALID,0,VALID,98.7973,VALID,-0.0339617,VALID,20.464,VALID,101,VALID,0,
1999-10-18, 02:36:00,VALID,0,VALID,98.8139,VALID,-0.0679233,VALID,20.457,VALID,97,VALID,0,
1999-10-18, 02:37:00,VALID,0,VALID,98.8507,VALID,-0.0169808,VALID,20.4862,VALID,106,VALID,0,
1999-10-18, 02:38:00,VALID,0,VALID,98.8507,VALID,-0.0169808,VALID,20.4961,VALID,132,VALID,0,
1999-10-18, 02:39:00,VALID,0,VALID,98.8558,VALID,-0.0169808,VALID,20.4964,VALID,113,VALID,0,
1999-10-18, 02:40:00,VALID,0,VALID,98.8151,VALID,-0.0509425,VALID,20.4864,VALID,109,VALID,0,
1999-10-18, 02:41:00,VALID,0,VALID,98.7465,VALID,-0.0339617,VALID,20.4638,VALID,109,VALID,0,
1999-10-18, 02:42:00,VALID,0,VALID,98.7541,VALID,-0.0509425,VALID,20.4675,VALID,111,VALID,0,
1999-10-18, 02:43:01,VALID,0,VALID,98.7375,VALID,-0.0169808,VALID,20.4678,VALID,112,VALID,0,
1999-10-18, 02:44:00,VALID,0,VALID,98.7172,VALID,-0.0509425,VALID,20.4347,VALID,84,VALID,0,
1999-10-18, 02:45:00,VALID,0,VALID,98.6167,VALID,0,VALID,20.4026,VALID,66,VALID,0,
1999-10-18, 02:46:00,VALID,0,VALID,98.5748,VALID,-0.0339617,VALID,20.3767,VALID,71,VALID,0,
1999-10-18, 02:47:00,VALID,0,VALID,98.618,VALID,-0.0339617,VALID,20.354,VALID,78,VALID,0,
1999-10-18, 02:48:00,VALID,0,VALID,98.6651,VALID,-0.0509425,VALID,20.3443,VALID,77,VALID,0,
1999-10-18, 02:49:00,VALID,0,VALID,98.7325,VALID,-0.0509425,VALID,20.3414,VALID,79,VALID,0,
1999-10-18, 02:50:00,VALID,0,VALID,98.796,VALID,-0.0169808,VALID,20.3446,VALID,103,VALID,0,
1999-10-18, 02:51:00,VALID,0,VALID,98.8533,VALID,-0.0509425,VALID,20.3575,VALID,104,VALID,0,
1999-10-18, 02:52:00,VALID,0,VALID,98.8889,VALID,-0.0169808,VALID,20.3707,VALID,94,VALID,0,
1999-10-18, 02:53:00,VALID,0,VALID,98.9258,VALID,-0.0339617,VALID,20.3667,VALID,90,VALID,0.707721,
1999-10-18, 02:54:00,VALID,0,VALID,98.894,VALID,0,VALID,20.3603,VALID,74,VALID,0.689967,
1999-10-18, 02:55:00,VALID,0,VALID,98.8978,VALID,0,VALID,20.3438,VALID,80,VALID,0.558594,
1999-10-18, 02:56:00,VALID,0,VALID,98.8876,VALID,0,VALID,20.3441,VALID,79,VALID,0.608929,
1999-10-18, 02:57:00,VALID,0,VALID,98.8965,VALID,0,VALID,20.3381,VALID,74,VALID,0.0688734,
1999-10-18, 02:58:00,VALID,0,VALID,98.9448,VALID,-0.0339617,VALID,20.3438,VALID,73,VALID,0,
1999-10-18, 02:59:00,VALID,0,VALID,98.9919,VALID,-0.0169808,VALID,20.3573,VALID,73,VALID,0,
1999-10-18, 03:00:00,VALID,0,VALID,98.9766,VALID,0,VALID,20.3672,VALID,187,VALID,0,
1999-10-18, 03:01:00,VALID,0,VALID,98.9486,VALID,0,VALID,20.3473,VALID,275,VALID,0,
1999-10-18, 03:02:00,VALID,0,VALID,98.9423,VALID,-0.0169808,VALID,20.3476,VALID,275,VALID,0,
1999-10-18, 03:03:00,VALID,0,VALID,98.9575,VALID,-0.0509425,VALID,20.3443,VALID,275,VALID,0,
1999-10-18, 03:04:00,VALID,0,VALID,98.9931,VALID,-0.0169808,VALID,20.3443,VALID,276,VALID,0,
1999-10-18, 03:05:00,VALID,0,VALID,99.0313,VALID,-0.0169808,VALID,20.371,VALID,198,VALID,0,
1999-10-18, 03:06:00,VALID,0,VALID,99.0542,VALID,-0.0509425,VALID,20.3702,VALID,132,VALID,0,
1999-10-18, 03:07:00,VALID,0,VALID,99.0733,VALID,-0.0509425,VALID,20.3842,VALID,96,VALID,0,
1999-10-18, 03:08:00,VALID,0,VALID,99.0694,VALID,-0.0509425,VALID,20.3837,VALID,105,VALID,0,
1999-10-18, 03:09:00,VALID,0,VALID,99.0822,VALID,-0.0509425,VALID,20.3729,VALID,103,VALID,0,
1999-10-18, 03:10:00,VALID,0,VALID,99.0783,VALID,-0.0339617,VALID,20.4066,VALID,95,VALID,0,
1999-10-18, 03:11:00,VALID,0,VALID,99.0427,VALID,-0.0509425,VALID,20.3998,VALID,93,VALID,0,
1999-10-18, 03:12:00,VALID,0,VALID,99.0059,VALID,-0.0339617,VALID,20.3737,VALID,98,VALID,0,
1999-10-18, 03:13:00,VALID,0,VALID,99.0071,VALID,-0.0169808,VALID,20.3637,VALID,90,VALID,0,
1999-10-18, 03:14:00,VALID,0,VALID,99.0198,VALID,-0.0169808,VALID,20.3662,VALID,91,VALID,0,
1999-10-18, 03:15:00,VALID,0,VALID,99.0084,VALID,0,VALID,20.363,VALID,85,VALID,0,
1999-10-18, 03:16:00,VALID,0,VALID,99.0186,VALID,0,VALID,20.363,VALID,66,VALID,0,
1999-10-18, 03:17:00,VALID,0,VALID,99.0135,VALID,0,VALID,20.3533,VALID,57,VALID,0,
1999-10-18, 03:18:00,VALID,0,VALID,99.0237,VALID,0,VALID,20.36,VALID,71,VALID,0,
1999-10-18, 03:19:00,VALID,0,VALID,98.9741,VALID,0,VALID,20.3403,VALID,71,VALID,0,
1999-10-18, 03:20:00,VALID,0,VALID,98.9499,VALID,0,VALID,20.3279,VALID,71,VALID,0,
1999-10-18, 03:21:00,VALID,0,VALID,98.9652,VALID,0.0169808,VALID,20.3277,VALID,71,VALID,0,
1999-10-18, 03:22:00,VALID,0,VALID,98.9741,VALID,0.0169808,VALID,20.3438,VALID,70,VALID,0,
1999-10-18, 03:23:00,VALID,0,VALID,99.0224,VALID,0,VALID,20.353,VALID,70,VALID,0,
1999-10-18, 03:24:00,VALID,0,VALID,98.9919,VALID,0.0169808,VALID,20.3533,VALID,70,VALID,0,
1999-10-18, 03:25:00,VALID,0,VALID,99.002,VALID,-0.0169808,VALID,20.3632,VALID,70,VALID,0,
1999-10-18, 03:26:00,VALID,0,VALID,98.9842,VALID,0.0169808,VALID,20.363,VALID,70,VALID,0,
1999-10-18, 03:27:01,VALID,0,VALID,98.997,VALID,0,VALID,20.3694,VALID,70,VALID,0,
1999-10-18, 03:28:00,VALID,0,VALID,99.0427,VALID,0.0169808,VALID,20.3821,VALID,70,VALID,0,
1999-10-18, 03:29:00,VALID,0,VALID,99.0542,VALID,0.0169808,VALID,20.3916,VALID,70,VALID,0,
1999-10-18, 03:30:00,VALID,0,VALID,99.0262,VALID,0,VALID,20.3923,VALID,70,VALID,0,
1999-10-18, 03:31:00,VALID,0,VALID,98.9881,VALID,0,VALID,20.3856,VALID,70,VALID,0,
1999-10-18, 03:32:00,VALID,0,VALID,98.9715,VALID,0,VALID,20.3789,VALID,70,VALID,0,
1999-10-18, 03:33:00,VALID,0,VALID,98.9766,VALID,0.0169808,VALID,20.366,VALID,62,VALID,0,
1999-10-18, 03:34:00,VALID,0,VALID,98.9944,VALID,0.0169808,VALID,20.3657,VALID,308,VALID,0,
1999-10-18, 03:35:00,VALID,0,VALID,99.0148,VALID,0,VALID,20.3595,VALID,301,VALID,0,
1999-10-18, 03:36:00,VALID,0,VALID,99.03,VALID,0.0169808,VALID,20.36,VALID,296,VALID,0,
1999-10-18, 03:37:01,VALID,0,VALID,99.0783,VALID,0,VALID,20.3565,VALID,296,VALID,0,
1999-10-18, 03:38:00,VALID,0,VALID,99.0987,VALID,0,VALID,20.363,VALID,296,VALID,0,
1999-10-18, 03:39:00,VALID,0,VALID,99.1152,VALID,0,VALID,20.3535,VALID,296,VALID,0,
1999-10-18, 03:40:00,VALID,0,VALID,99.1483,VALID,0,VALID,20.3672,VALID,296,VALID,0,
1999-10-18, 03:41:00,VALID,0,VALID,99.133,VALID,0,VALID,20.3433,VALID,296,VALID,0,
1999-10-18, 03:42:00,VALID,0,VALID,99.1661,VALID,0.0339617,VALID,20.3597,VALID,296,VALID,0,
1999-10-18, 03:43:00,VALID,0,VALID,99.1941,VALID,0,VALID,20.3727,VALID,296,VALID,0,
1999-10-18, 03:44:00,VALID,0,VALID,99.1496,VALID,0,VALID,20.3632,VALID,296,VALID,0,
1999-10-18, 03:45:00,VALID,0,VALID,99.1292,VALID,0,VALID,20.3368,VALID,296,VALID,0,
1999-10-18, 03:46:00,VALID,0,VALID,99.133,VALID,0,VALID,20.3306,VALID,296,VALID,0,
1999-10-18, 03:47:00,VALID,0,VALID,99.1623,VALID,0,VALID,20.3401,VALID,296,VALID,0,
1999-10-18, 03:48:00,VALID,0,VALID,99.1559,VALID,0,VALID,20.3436,VALID,296,VALID,0,
1999-10-18, 03:49:01,VALID,0,VALID,99.1356,VALID,-0.0169808,VALID,20.3438,VALID,296,VALID,0,
1999-10-18, 03:50:00,VALID,0,VALID,99.1127,VALID,0.0169808,VALID,20.3471,VALID,299,VALID,0,
1999-10-18, 03:51:00,VALID,0,VALID,99.0809,VALID,-0.0339617,VALID,20.3244,VALID,305,VALID,0,
1999-10-18, 03:52:00,VALID,0,VALID,99.0733,VALID,-0.0169808,VALID,20.308,VALID,305,VALID,0,
1999-10-18, 03:53:00,VALID,0,VALID,99.0783,VALID,0,VALID,20.308,VALID,313,VALID,0,
1999-10-18, 03:54:00,VALID,0,VALID,99.0822,VALID,-0.0169808,VALID,20.2985,VALID,316,VALID,0,
1999-10-18, 03:55:00,VALID,0,VALID,99.1254,VALID,-0.0169808,VALID,20.2918,VALID,314,VALID,0,
1999-10-18, 03:56:00,VALID,0,VALID,99.1597,VALID,0,VALID,20.2853,VALID,307,VALID,0,
1999-10-18, 03:57:00,VALID,0,VALID,99.1661,VALID,0,VALID,20.2796,VALID,305,VALID,0,
1999-10-18, 03:58:00,VALID,0,VALID,99.1788,VALID,-0.0169808,VALID,20.2627,VALID,309,VALID,0,
1999-10-18, 03:59:00,VALID,0,VALID,99.1852,VALID,0,VALID,20.2562,VALID,318,VALID,0,
1999-10-18, 04:00:01,VALID,0,VALID,99.1852,VALID,0,VALID,20.25,VALID,319,VALID,0,
1999-10-18, 04:01:00,VALID,0,VALID,99.1928,VALID,0,VALID,20.2403,VALID,318,VALID,0,
1999-10-18, 04:02:00,VALID,0,VALID,99.2309,VALID,0,VALID,20.2465,VALID,300,VALID,0,
1999-10-18, 04:03:00,VALID,0,VALID,99.25,VALID,0,VALID,20.263,VALID,309,VALID,0,
1999-10-18, 04:04:00,VALID,0,VALID,99.2589,VALID,-0.0169808,VALID,20.2667,VALID,316,VALID,0,
1999-10-18, 04:05:00,VALID,0,VALID,99.2424,VALID,-0.0169808,VALID,20.2533,VALID,318,VALID,0,
1999-10-18, 04:06:00,VALID,0,VALID,99.2576,VALID,0,VALID,20.2401,VALID,328,VALID,0,
1999-10-18, 04:07:00,VALID,0,VALID,99.311,VALID,0,VALID,20.2533,VALID,310,VALID,0,
1999-10-18, 04:08:00,VALID,0,VALID,99.3149,VALID,-0.0169808,VALID,20.2533,VALID,288,VALID,0,
1999-10-18, 04:09:00,VALID,0,VALID,99.3377,VALID,-0.0169808,VALID,20.2565,VALID,267,VALID,0,
1999-10-18, 04:10:00,VALID,0,VALID,99.3556,VALID,-0.0169808,VALID,20.2565,VALID,267,VALID,0,
1999-10-18, 04:11:01,VALID,0,VALID,99.4255,VALID,0,VALID,20.2859,VALID,250,VALID,0,
1999-10-18, 04:12:00,VALID,0,VALID,99.3975,VALID,-0.0339617,VALID,20.2759,VALID,178,VALID,0,
1999-10-18, 04:13:00,VALID,0,VALID,99.3746,VALID,0,VALID,20.263,VALID,175,VALID,0,
1999-10-18, 04:14:00,VALID,0,VALID,99.3784,VALID,0,VALID,20.2737,VALID,160,VALID,0,
1999-10-18, 04:15:00,VALID,0,VALID,99.4102,VALID,0.0339617,VALID,20.26,VALID,173,VALID,0,
1999-10-18, 04:16:00,VALID,0,VALID,99.442,VALID,0,VALID,20.2923,VALID,130,VALID,0,
1999-10-18, 04:17:00,VALID,0,VALID,99.4306,VALID,0.0339617,VALID,20.2928,VALID,123,VALID,0,
1999-10-18, 04:18:00,VALID,0,VALID,99.3835,VALID,0,VALID,20.2535,VALID,91,VALID,0,
1999-10-18, 04:19:00,VALID,0,VALID,99.4229,VALID,0,VALID,20.2632,VALID,321,VALID,0,
1999-10-18, 04:20:00,VALID,0,VALID,99.4001,VALID,0,VALID,20.257,VALID,155,VALID,0,
1999-10-18, 04:21:00,VALID,0,VALID,99.3861,VALID,0.0169808,VALID,20.2505,VALID,108,VALID,0,
1999-10-18, 04:22:01,VALID,0,VALID,99.3556,VALID,0,VALID,20.2309,VALID,135,VALID,0,
1999-10-18, 04:23:00,VALID,0,VALID,99.3517,VALID,0,VALID,20.208,VALID,124,VALID,0,